Check out our new BloomSky Weather System.

Active alerts

Houston, TX
  Details for Houston, TX Dense Fog Advisory


Thunder radar  blitzortung!


Rain radar more information rain snow radar


Visit our other weather sites:

Template documentation
and downloads

And another site



Weather Underground History page Text

Daily Summary for November 5, 2017 Units:  English    Metric   Both
« Previous Day
Next Day »
Daily Weekly Monthly Yearly Custom
  High: Low: Average:
Temperature: 88.0 °F 73.6 °F 78.6 °F
Dew Point: 75.9 °F 70.5 °F 72.8 °F
Humidity: 98 % 59 % 84 %
Wind Speed: 13.0 mph 1.0 mph 4.2 mph
Wind Gust: 18.0 mph - -
Wind:- - South
Pressure: 30.00 in 29.88 in -
Precipitation: 0.00 in    
Historical Graphs
 
 
Tabular Data for November 5, 2017
Time Temperature Dew Point Pressure Wind Wind Speed Wind Gust Humidity Rainfall Rate (Hourly)
00:00 74.1 °F 72.0 °F 29.96 in South 3.0 mph 8.0 mph 93 % 0.00 in
00:05 74.1 °F 72.0 °F 29.96 in SE 2.0 mph 8.0 mph 93 % 0.00 in
00:10 73.9 °F 72.1 °F 29.96 in SE 4.0 mph 8.0 mph 94 % 0.00 in
00:15 73.9 °F 72.1 °F 29.96 in SSE 7.0 mph 8.0 mph 94 % 0.00 in
00:20 73.9 °F 72.1 °F 29.96 in SSW 4.0 mph 8.0 mph 94 % 0.00 in
00:25 73.8 °F 72.0 °F 29.97 in SE 2.0 mph 8.0 mph 94 % 0.00 in
00:30 73.8 °F 72.0 °F 29.97 in SE 4.0 mph 8.0 mph 94 % 0.00 in
00:35 73.8 °F 72.0 °F 29.97 in SSW 4.0 mph 7.0 mph 94 % 0.00 in
00:40 73.6 °F 72.1 °F 29.97 in SSE 4.0 mph 7.0 mph 95 % 0.00 in
00:45 73.6 °F 72.1 °F 29.97 in South 4.0 mph 7.0 mph 95 % 0.00 in
00:50 73.6 °F 72.1 °F 29.96 in SSW 2.0 mph 8.0 mph 95 % 0.00 in
00:55 73.6 °F 72.1 °F 29.96 in SSE 3.0 mph 9.0 mph 95 % 0.00 in
01:00 73.6 °F 72.1 °F 29.96 in SSE 8.0 mph 9.0 mph 95 % 0.00 in
01:06 73.6 °F 72.1 °F 29.96 in SE 3.0 mph 9.0 mph 95 % 0.00 in
01:11 73.6 °F 72.1 °F 29.96 in SSE 4.0 mph 8.0 mph 95 % 0.00 in
01:16 73.6 °F 72.1 °F 29.96 in SSE 2.0 mph 8.0 mph 95 % 0.00 in
01:21 73.6 °F 72.3 °F 29.96 in SSW 3.0 mph 11.0 mph 96 % 0.00 in
01:26 73.6 °F 72.3 °F 29.96 in South 5.0 mph 11.0 mph 96 % 0.00 in
01:31 73.6 °F 72.3 °F 29.96 in SSE 5.0 mph 11.0 mph 96 % 0.00 in
01:36 73.6 °F 72.3 °F 29.96 in SSE 4.0 mph 10.0 mph 96 % 0.00 in
01:41 73.8 °F 72.5 °F 29.96 in SSE 2.0 mph 8.0 mph 96 % 0.00 in
01:46 73.8 °F 72.5 °F 29.96 in SSE 3.0 mph 8.0 mph 96 % 0.00 in
01:51 73.8 °F 72.5 °F 29.96 in SSE 3.0 mph 8.0 mph 96 % 0.00 in
01:56 73.8 °F 72.5 °F 29.96 in SSE 4.0 mph 8.0 mph 96 % 0.00 in
01:01 73.8 °F 72.5 °F 29.96 in SSE 4.0 mph 11.0 mph 96 % 0.00 in
01:06 73.8 °F 72.5 °F 29.96 in SSE 3.0 mph 11.0 mph 96 % 0.00 in
01:11 73.8 °F 72.5 °F 29.96 in South 5.0 mph 11.0 mph 96 % 0.00 in
01:16 73.8 °F 72.5 °F 29.96 in South 4.0 mph 11.0 mph 96 % 0.00 in
01:21 73.8 °F 72.5 °F 29.95 in SSE 2.0 mph 11.0 mph 96 % 0.00 in
01:26 73.8 °F 72.5 °F 29.95 in SSE 4.0 mph 11.0 mph 96 % 0.00 in
01:31 73.8 °F 72.5 °F 29.95 in SSE 4.0 mph 11.0 mph 96 % 0.00 in
01:36 73.8 °F 72.5 °F 29.95 in SSW 6.0 mph 10.0 mph 96 % 0.00 in
01:41 73.8 °F 72.5 °F 29.95 in SE 6.0 mph 9.0 mph 96 % 0.00 in
01:46 73.8 °F 72.5 °F 29.95 in SSE 6.0 mph 9.0 mph 96 % 0.00 in
01:51 73.8 °F 72.5 °F 29.95 in SSW 3.0 mph 9.0 mph 96 % 0.00 in
01:56 73.8 °F 72.5 °F 29.95 in South 5.0 mph 9.0 mph 96 % 0.00 in
02:01 73.8 °F 72.5 °F 29.95 in SSE 4.0 mph 10.0 mph 96 % 0.00 in
02:06 73.6 °F 72.3 °F 29.95 in SSE 4.0 mph 10.0 mph 96 % 0.00 in
02:11 73.6 °F 72.3 °F 29.95 in South 3.0 mph 10.0 mph 96 % 0.00 in
02:16 73.6 °F 72.3 °F 29.95 in South 3.0 mph 10.0 mph 96 % 0.00 in
02:21 73.6 °F 72.3 °F 29.94 in SSE 4.0 mph 10.0 mph 96 % 0.00 in
02:26 73.6 °F 72.7 °F 29.94 in South 3.0 mph 10.0 mph 97 % 0.00 in
02:31 73.6 °F 72.7 °F 29.94 in SE 3.0 mph 10.0 mph 97 % 0.00 in
02:36 73.6 °F 72.7 °F 29.94 in SSE 4.0 mph 10.0 mph 97 % 0.00 in
02:41 73.6 °F 72.7 °F 29.94 in SSE 2.0 mph 10.0 mph 97 % 0.00 in
02:46 73.8 °F 72.9 °F 29.94 in SSE 3.0 mph 10.0 mph 97 % 0.00 in
02:51 73.8 °F 72.9 °F 29.94 in SSE 2.0 mph 10.0 mph 97 % 0.00 in
02:56 73.8 °F 72.9 °F 29.94 in SSE 3.0 mph 10.0 mph 97 % 0.00 in
03:01 73.8 °F 72.9 °F 29.94 in SE 2.0 mph 10.0 mph 97 % 0.00 in
03:02 73.8 °F 72.9 °F 29.94 in SSE 2.0 mph 10.0 mph 97 % 0.00 in
03:07 73.8 °F 72.9 °F 29.94 in SE 2.0 mph 10.0 mph 97 % 0.00 in
03:12 73.8 °F 72.9 °F 29.94 in SSE 2.0 mph 10.0 mph 97 % 0.00 in
03:17 73.8 °F 72.9 °F 29.94 in East 4.0 mph 8.0 mph 97 % 0.00 in
03:22 73.8 °F 72.9 °F 29.94 in SSW 3.0 mph 9.0 mph 97 % 0.00 in
03:27 73.9 °F 73.0 °F 29.94 in SSE 2.0 mph 9.0 mph 97 % 0.00 in
03:32 73.9 °F 73.0 °F 29.94 in SSE 4.0 mph 9.0 mph 97 % 0.00 in
03:37 73.9 °F 73.0 °F 29.94 in South 2.0 mph 9.0 mph 97 % 0.00 in
03:42 74.1 °F 73.2 °F 29.94 in SE 1.0 mph 9.0 mph 97 % 0.00 in
03:47 74.1 °F 72.9 °F 29.94 in SSW 2.0 mph 9.0 mph 96 % 0.00 in
03:57 74.3 °F 73.0 °F 29.94 in SE 3.0 mph 9.0 mph 96 % 0.00 in
04:02 74.3 °F 73.0 °F 29.94 in SSW 2.0 mph 9.0 mph 96 % 0.00 in
04:07 74.3 °F 73.0 °F 29.94 in South 4.0 mph 9.0 mph 96 % 0.00 in
04:12 74.3 °F 73.0 °F 29.94 in SE 3.0 mph 9.0 mph 96 % 0.00 in
04:17 74.3 °F 73.0 °F 29.94 in ESE 4.0 mph 9.0 mph 96 % 0.00 in
04:22 74.5 °F 73.2 °F 29.94 in SSW 2.0 mph 9.0 mph 96 % 0.00 in
04:27 74.5 °F 73.2 °F 29.94 in SSE 3.0 mph 9.0 mph 96 % 0.00 in
04:32 74.5 °F 73.2 °F 29.94 in SSE 2.0 mph 9.0 mph 96 % 0.00 in
04:37 74.5 °F 73.2 °F 29.94 in South 3.0 mph 8.0 mph 96 % 0.00 in
04:42 74.5 °F 73.2 °F 29.94 in SE 2.0 mph 8.0 mph 96 % 0.00 in
04:47 74.3 °F 73.0 °F 29.95 in SSE 1.0 mph 8.0 mph 96 % 0.00 in
04:52 74.3 °F 73.0 °F 29.95 in SSW 2.0 mph 8.0 mph 96 % 0.00 in
04:57 74.3 °F 73.0 °F 29.95 in SE 3.0 mph 8.0 mph 96 % 0.00 in
05:02 74.3 °F 73.0 °F 29.95 in South 2.0 mph 7.0 mph 96 % 0.00 in
05:07 74.3 °F 73.0 °F 29.95 in SSW 3.0 mph 7.0 mph 96 % 0.00 in
05:10 74.3 °F 73.0 °F 29.95 in SSE 2.0 mph 7.0 mph 96 % 0.00 in
05:15 74.1 °F 72.9 °F 29.95 in ESE 3.0 mph 7.0 mph 96 % 0.00 in
05:20 74.1 °F 72.9 °F 29.94 in SSE 2.0 mph 7.0 mph 96 % 0.00 in
05:25 74.1 °F 72.9 °F 29.94 in SE 2.0 mph 7.0 mph 96 % 0.00 in
05:30 73.9 °F 72.7 °F 29.94 in SE 4.0 mph 7.0 mph 96 % 0.00 in
05:35 73.9 °F 72.7 °F 29.94 in ESE 5.0 mph 7.0 mph 96 % 0.00 in
05:37 73.9 °F 72.7 °F 29.94 in SSE 3.0 mph 7.0 mph 96 % 0.00 in
05:42 73.8 °F 72.9 °F 29.94 in SE 3.0 mph 7.0 mph 97 % 0.00 in
05:47 73.8 °F 72.9 °F 29.94 in ESE 2.0 mph 7.0 mph 97 % 0.00 in
05:52 73.8 °F 72.9 °F 29.94 in SSW 1.0 mph 7.0 mph 97 % 0.00 in
05:57 73.8 °F 72.9 °F 29.94 in East 4.0 mph 7.0 mph 97 % 0.00 in
06:02 73.6 °F 72.7 °F 29.95 in SSE 4.0 mph 7.0 mph 97 % 0.00 in
06:07 73.6 °F 72.7 °F 29.95 in ESE 4.0 mph 7.0 mph 97 % 0.00 in
06:12 73.6 °F 72.7 °F 29.95 in SE 2.0 mph 7.0 mph 97 % 0.00 in
06:17 73.6 °F 72.7 °F 29.95 in ESE 4.0 mph 7.0 mph 97 % 0.00 in
06:22 73.6 °F 72.7 °F 29.96 in SSE 1.0 mph 7.0 mph 97 % 0.00 in
06:27 73.6 °F 72.7 °F 29.96 in SE 2.0 mph 7.0 mph 97 % 0.00 in
06:32 73.6 °F 72.7 °F 29.96 in SE 1.0 mph 7.0 mph 97 % 0.00 in
06:37 73.6 °F 72.7 °F 29.96 in ESE 3.0 mph 7.0 mph 97 % 0.00 in
06:42 73.6 °F 72.7 °F 29.96 in South 3.0 mph 7.0 mph 97 % 0.00 in
06:47 73.6 °F 72.7 °F 29.96 in SE 2.0 mph 7.0 mph 97 % 0.00 in
06:52 73.6 °F 73.0 °F 29.96 in South 4.0 mph 7.0 mph 98 % 0.00 in
06:57 73.6 °F 73.0 °F 29.97 in SSE 2.0 mph 7.0 mph 98 % 0.00 in
07:02 73.6 °F 73.0 °F 29.97 in SE 2.0 mph 6.0 mph 98 % 0.00 in
07:07 73.8 °F 73.2 °F 29.97 in SSE 2.0 mph 5.0 mph 98 % 0.00 in
07:12 73.8 °F 73.2 °F 29.97 in SSE 3.0 mph 5.0 mph 98 % 0.00 in
07:17 73.8 °F 73.2 °F 29.97 in SE 2.0 mph 4.0 mph 98 % 0.00 in
07:20 73.8 °F 73.2 °F 29.97 in SE 3.0 mph 4.0 mph 98 % 0.00 in
07:25 73.9 °F 73.4 °F 29.97 in SSE 3.0 mph 4.0 mph 98 % 0.00 in
07:30 73.9 °F 73.4 °F 29.96 in SSE 3.0 mph 6.0 mph 98 % 0.00 in
07:35 74.1 °F 73.6 °F 29.97 in SSE 1.0 mph 6.0 mph 98 % 0.00 in
07:40 74.1 °F 73.2 °F 29.97 in South 5.0 mph 6.0 mph 97 % 0.00 in
07:45 74.5 °F 73.6 °F 29.97 in SSE 2.0 mph 6.0 mph 97 % 0.00 in
07:50 74.5 °F 73.6 °F 29.97 in SSE 6.0 mph 6.0 mph 97 % 0.00 in
07:55 74.7 °F 73.8 °F 29.97 in SSE 1.0 mph 7.0 mph 97 % 0.00 in
08:00 75.0 °F 74.1 °F 29.97 in SSE 3.0 mph 7.0 mph 97 % 0.00 in
08:05 75.2 °F 73.9 °F 29.98 in South 6.0 mph 7.0 mph 96 % 0.00 in
08:10 75.4 °F 74.1 °F 29.98 in South 2.0 mph 6.0 mph 96 % 0.00 in
08:15 75.6 °F 73.9 °F 29.98 in SSW 4.0 mph 7.0 mph 95 % 0.00 in
08:20 75.9 °F 74.7 °F 29.98 in SSE 4.0 mph 8.0 mph 96 % 0.00 in
08:25 76.3 °F 74.7 °F 29.99 in SSE 1.0 mph 8.0 mph 95 % 0.00 in
08:30 76.5 °F 74.7 °F 29.98 in SE 8.0 mph 9.0 mph 94 % 0.00 in
08:35 76.5 °F 74.7 °F 29.99 in SSE 3.0 mph 10.0 mph 94 % 0.00 in
08:40 76.5 °F 74.7 °F 29.99 in SW 5.0 mph 10.0 mph 94 % 0.00 in
08:45 76.6 °F 74.8 °F 29.99 in SSE 3.0 mph 10.0 mph 94 % 0.00 in
08:50 76.6 °F 74.5 °F 29.99 in SSE 7.0 mph 9.0 mph 93 % 0.00 in
08:55 76.8 °F 74.7 °F 29.99 in SE 5.0 mph 10.0 mph 93 % 0.00 in
09:00 77.4 °F 75.2 °F 29.99 in SSE 3.0 mph 10.0 mph 93 % 0.00 in
09:05 77.7 °F 75.2 °F 29.99 in ESE 6.0 mph 10.0 mph 92 % 0.00 in
09:10 77.7 °F 74.8 °F 29.99 in SE 9.0 mph 10.0 mph 91 % 0.00 in
09:16 77.7 °F 74.8 °F 29.99 in SSE 3.0 mph 12.0 mph 91 % 0.00 in
09:21 78.1 °F 75.2 °F 29.99 in SSW 5.0 mph 12.0 mph 91 % 0.00 in
09:26 78.3 °F 75.0 °F 29.99 in South 4.0 mph 12.0 mph 90 % 0.00 in
09:31 78.6 °F 75.4 °F 29.99 in SE 4.0 mph 8.0 mph 90 % 0.00 in
09:36 79.0 °F 75.4 °F 29.99 in SSW 5.0 mph 10.0 mph 89 % 0.00 in
09:41 79.9 °F 75.9 °F 29.99 in SSE 3.0 mph 11.0 mph 88 % 0.00 in
09:46 80.2 °F 75.7 °F 29.99 in SSW 3.0 mph 11.0 mph 86 % 0.00 in
09:51 80.8 °F 75.9 °F 29.99 in SSE 6.0 mph 11.0 mph 85 % 0.00 in
09:56 80.8 °F 75.2 °F 29.99 in SSE 6.0 mph 14.0 mph 83 % 0.00 in
10:01 80.8 °F 75.6 °F 30.00 in SSW 7.0 mph 14.0 mph 84 % 0.00 in
10:06 80.8 °F 75.2 °F 30.00 in SSE 4.0 mph 14.0 mph 83 % 0.00 in
10:11 80.8 °F 74.8 °F 30.00 in SSW 6.0 mph 14.0 mph 82 % 0.00 in
10:16 80.8 °F 74.8 °F 30.00 in South 3.0 mph 13.0 mph 82 % 0.00 in
10:18 80.8 °F 75.2 °F 30.00 in SSE 6.0 mph 13.0 mph 83 % 0.00 in
10:23 80.8 °F 74.8 °F 30.00 in South 4.0 mph 13.0 mph 82 % 0.00 in
10:28 81.0 °F 75.0 °F 30.00 in SSW 8.0 mph 13.0 mph 82 % 0.00 in
10:33 82.0 °F 75.9 °F 29.99 in SSW 6.0 mph 13.0 mph 82 % 0.00 in
10:38 82.8 °F 75.2 °F 29.99 in SSW 5.0 mph 14.0 mph 78 % 0.00 in
10:43 82.9 °F 75.4 °F 29.99 in SSE 3.0 mph 18.0 mph 78 % 0.00 in
10:48 83.3 °F 75.0 °F 29.99 in South 8.0 mph 18.0 mph 76 % 0.00 in
10:53 83.8 °F 75.9 °F 29.99 in SW 2.0 mph 18.0 mph 77 % 0.00 in
10:58 84.0 °F 74.5 °F 29.98 in SSW 9.0 mph 11.0 mph 73 % 0.00 in
11:03 83.8 °F 74.3 °F 29.98 in SSW 11.0 mph 18.0 mph 73 % 0.00 in
11:08 84.0 °F 73.9 °F 29.98 in SSW 6.0 mph 18.0 mph 72 % 0.00 in
11:13 84.6 °F 74.5 °F 29.97 in SSW 8.0 mph 18.0 mph 72 % 0.00 in
11:19 84.4 °F 73.6 °F 29.97 in SSE 6.0 mph 16.0 mph 70 % 0.00 in
11:24 84.4 °F 74.3 °F 29.97 in SSW 9.0 mph 16.0 mph 72 % 0.00 in
11:29 84.6 °F 73.8 °F 29.97 in South 9.0 mph 15.0 mph 70 % 0.00 in
11:34 84.9 °F 74.1 °F 29.97 in SE 4.0 mph 17.0 mph 70 % 0.00 in
11:39 85.8 °F 74.5 °F 29.97 in SSW 5.0 mph 17.0 mph 69 % 0.00 in
11:44 85.8 °F 73.6 °F 29.96 in West 3.0 mph 17.0 mph 67 % 0.00 in
11:49 85.5 °F 73.2 °F 29.96 in SSE 7.0 mph 16.0 mph 67 % 0.00 in
11:54 85.3 °F 73.0 °F 29.96 in South 4.0 mph 16.0 mph 67 % 0.00 in
12:04 86.5 °F 73.4 °F 29.96 in South 12.0 mph 16.0 mph 65 % 0.00 in
12:09 87.1 °F 74.3 °F 29.95 in SE 6.0 mph 15.0 mph 66 % 0.00 in
12:14 87.3 °F 74.1 °F 29.95 in SSE 4.0 mph 13.0 mph 65 % 0.00 in
12:19 86.5 °F 73.4 °F 29.95 in SSW 11.0 mph 13.0 mph 65 % 0.00 in
12:24 86.2 °F 73.9 °F 29.94 in South 5.0 mph 13.0 mph 67 % 0.00 in
12:29 86.4 °F 73.2 °F 29.94 in SSE 8.0 mph 13.0 mph 65 % 0.00 in
12:34 86.7 °F 72.7 °F 29.94 in SE 8.0 mph 13.0 mph 63 % 0.00 in
12:39 86.7 °F 73.0 °F 29.93 in SSE 10.0 mph 16.0 mph 64 % 0.00 in
12:44 86.4 °F 72.7 °F 29.92 in SSW 6.0 mph 16.0 mph 64 % 0.00 in
12:49 86.5 °F 72.5 °F 29.92 in South 13.0 mph 16.0 mph 63 % 0.00 in
12:54 86.9 °F 72.9 °F 29.92 in SSE 7.0 mph 16.0 mph 63 % 0.00 in
12:59 86.5 °F 72.0 °F 29.92 in SSW 5.0 mph 14.0 mph 62 % 0.00 in
13:04 86.7 °F 72.1 °F 29.91 in SSW 10.0 mph 15.0 mph 62 % 0.00 in
13:09 86.9 °F 72.9 °F 29.91 in SE 5.0 mph 16.0 mph 63 % 0.00 in
13:14 87.1 °F 72.5 °F 29.91 in SSW 9.0 mph 16.0 mph 62 % 0.00 in
13:19 87.1 °F 72.5 °F 29.91 in SSE 5.0 mph 16.0 mph 62 % 0.00 in
13:24 87.4 °F 72.9 °F 29.91 in SSW 10.0 mph 15.0 mph 62 % 0.00 in
13:29 87.3 °F 72.1 °F 29.91 in SSE 5.0 mph 13.0 mph 61 % 0.00 in
13:34 86.5 °F 71.4 °F 29.91 in South 8.0 mph 12.0 mph 61 % 0.00 in
13:40 86.2 °F 71.6 °F 29.91 in SSW 5.0 mph 12.0 mph 62 % 0.00 in
13:45 85.8 °F 71.8 °F 29.91 in SW 2.0 mph 12.0 mph 63 % 0.00 in
13:50 86.2 °F 72.1 °F 29.91 in SSE 7.0 mph 12.0 mph 63 % 0.00 in
13:55 86.5 °F 72.0 °F 29.91 in ESE 9.0 mph 14.0 mph 62 % 0.00 in
14:00 87.1 °F 72.5 °F 29.91 in South 8.0 mph 14.0 mph 62 % 0.00 in
14:05 87.3 °F 72.7 °F 29.91 in SSW 5.0 mph 14.0 mph 62 % 0.00 in
14:10 87.4 °F 71.8 °F 29.91 in SE 4.0 mph 13.0 mph 60 % 0.00 in
14:15 87.6 °F 72.0 °F 29.91 in ESE 5.0 mph 13.0 mph 60 % 0.00 in
14:20 87.4 °F 72.3 °F 29.91 in SE 6.0 mph 10.0 mph 61 % 0.00 in
14:25 87.4 °F 72.3 °F 29.91 in SSE 3.0 mph 12.0 mph 61 % 0.00 in
14:30 87.6 °F 72.0 °F 29.91 in South 8.0 mph 12.0 mph 60 % 0.00 in
14:35 87.8 °F 72.1 °F 29.91 in SW 4.0 mph 12.0 mph 60 % 0.00 in
14:40 88.0 °F 72.3 °F 29.91 in WSW 5.0 mph 11.0 mph 60 % 0.00 in
14:45 88.0 °F 71.8 °F 29.90 in SSE 6.0 mph 11.0 mph 59 % 0.00 in
14:50 88.0 °F 72.3 °F 29.91 in WSW 4.0 mph 12.0 mph 60 % 0.00 in
14:55 88.0 °F 71.8 °F 29.90 in South 4.0 mph 12.0 mph 59 % 0.00 in
15:00 87.6 °F 72.5 °F 29.90 in SSW 2.0 mph 12.0 mph 61 % 0.00 in
15:05 87.8 °F 72.7 °F 29.90 in SW 7.0 mph 10.0 mph 61 % 0.00 in
15:10 88.0 °F 71.8 °F 29.90 in SW 6.0 mph 11.0 mph 59 % 0.00 in
15:15 87.4 °F 71.8 °F 29.89 in SSE 5.0 mph 13.0 mph 60 % 0.00 in
15:20 87.4 °F 71.8 °F 29.89 in SSW 7.0 mph 13.0 mph 60 % 0.00 in
15:25 87.3 °F 71.6 °F 29.89 in SSW 5.0 mph 14.0 mph 60 % 0.00 in
15:30 87.4 °F 71.4 °F 29.89 in SSW 7.0 mph 14.0 mph 59 % 0.00 in
15:35 87.3 °F 71.6 °F 29.89 in SW 6.0 mph 15.0 mph 60 % 0.00 in
15:40 87.1 °F 71.4 °F 29.89 in South 5.0 mph 15.0 mph 60 % 0.00 in
15:45 86.5 °F 71.4 °F 29.89 in SSW 3.0 mph 15.0 mph 61 % 0.00 in
15:50 85.8 °F 70.9 °F 29.89 in SW 5.0 mph 13.0 mph 61 % 0.00 in
15:55 85.5 °F 70.5 °F 29.89 in SSW 9.0 mph 13.0 mph 61 % 0.00 in
16:00 85.3 °F 70.7 °F 29.89 in SSW 6.0 mph 13.0 mph 62 % 0.00 in
16:05 84.9 °F 70.5 °F 29.89 in SSW 4.0 mph 13.0 mph 62 % 0.00 in
16:10 84.9 °F 70.9 °F 29.89 in SW 2.0 mph 13.0 mph 63 % 0.00 in
16:16 84.7 °F 71.2 °F 29.89 in SW 5.0 mph 9.0 mph 64 % 0.00 in
16:21 84.6 °F 71.1 °F 29.89 in SW 4.0 mph 9.0 mph 64 % 0.00 in
16:26 84.4 °F 71.2 °F 29.88 in South 3.0 mph 9.0 mph 65 % 0.00 in
16:31 84.4 °F 71.8 °F 29.88 in South 3.0 mph 7.0 mph 66 % 0.00 in
16:36 84.4 °F 72.1 °F 29.89 in SW 2.0 mph 7.0 mph 67 % 0.00 in
16:41 84.4 °F 71.8 °F 29.89 in SW 2.0 mph 8.0 mph 66 % 0.00 in
16:46 84.6 °F 72.0 °F 29.89 in South 4.0 mph 8.0 mph 66 % 0.00 in
16:51 84.6 °F 71.4 °F 29.89 in South 3.0 mph 8.0 mph 65 % 0.00 in
16:56 84.7 °F 71.6 °F 29.89 in SW 2.0 mph 8.0 mph 65 % 0.00 in
17:01 84.6 °F 71.4 °F 29.89 in SSW 6.0 mph 9.0 mph 65 % 0.00 in
17:06 84.4 °F 71.2 °F 29.89 in SSW 3.0 mph 9.0 mph 65 % 0.00 in
17:11 84.0 °F 71.4 °F 29.89 in South 5.0 mph 9.0 mph 66 % 0.00 in
17:16 83.7 °F 71.1 °F 29.89 in SSW 5.0 mph 9.0 mph 66 % 0.00 in
17:21 83.5 °F 71.4 °F 29.89 in SSW 3.0 mph 8.0 mph 67 % 0.00 in
17:26 83.1 °F 71.1 °F 29.89 in SSW 6.0 mph 8.0 mph 67 % 0.00 in
17:31 82.9 °F 71.2 °F 29.90 in South 4.0 mph 8.0 mph 68 % 0.00 in
17:36 82.8 °F 71.1 °F 29.90 in South 4.0 mph 8.0 mph 68 % 0.00 in
17:41 82.4 °F 71.2 °F 29.90 in SSW 4.0 mph 8.0 mph 69 % 0.00 in
17:46 82.2 °F 71.1 °F 29.89 in SSW 3.0 mph 8.0 mph 69 % 0.00 in
17:51 82.0 °F 71.2 °F 29.90 in SW 3.0 mph 8.0 mph 70 % 0.00 in
17:56 81.7 °F 71.4 °F 29.90 in SE 2.0 mph 7.0 mph 71 % 0.00 in
18:01 81.5 °F 71.2 °F 29.90 in SSE 4.0 mph 8.0 mph 71 % 0.00 in
18:06 81.3 °F 71.4 °F 29.90 in SSW 2.0 mph 8.0 mph 72 % 0.00 in
18:11 81.1 °F 71.2 °F 29.91 in South 3.0 mph 8.0 mph 72 % 0.00 in
18:16 81.0 °F 71.4 °F 29.91 in SSW 2.0 mph 6.0 mph 73 % 0.00 in
18:21 80.8 °F 71.8 °F 29.91 in SSW 2.0 mph 6.0 mph 74 % 0.00 in
18:26 80.4 °F 71.4 °F 29.91 in SW 2.0 mph 6.0 mph 74 % 0.00 in
18:31 80.2 °F 71.6 °F 29.91 in SE 2.0 mph 5.0 mph 75 % 0.00 in
18:41 79.9 °F 71.6 °F 29.92 in SSW 2.0 mph 4.0 mph 76 % 0.00 in
18:46 79.7 °F 71.4 °F 29.92 in SSE 1.0 mph 6.0 mph 76 % 0.00 in
18:51 79.5 °F 71.6 °F 29.92 in South 2.0 mph 6.0 mph 77 % 0.00 in
19:01 79.3 °F 72.0 °F 29.93 in SSW 3.0 mph 6.0 mph 78 % 0.00 in
19:06 79.3 °F 72.0 °F 29.93 in South 3.0 mph 6.0 mph 78 % 0.00 in
19:11 79.3 °F 72.0 °F 29.93 in SSW 5.0 mph 8.0 mph 78 % 0.00 in
19:16 79.2 °F 71.8 °F 29.94 in SE 5.0 mph 9.0 mph 78 % 0.00 in
19:21 79.2 °F 71.8 °F 29.93 in South 4.0 mph 9.0 mph 78 % 0.00 in
19:26 79.2 °F 71.8 °F 29.93 in SW 4.0 mph 9.0 mph 78 % 0.00 in
19:31 79.2 °F 71.8 °F 29.93 in South 4.0 mph 9.0 mph 78 % 0.00 in
19:36 79.0 °F 72.0 °F 29.94 in SE 4.0 mph 9.0 mph 79 % 0.00 in
19:41 79.0 °F 72.0 °F 29.94 in South 6.0 mph 8.0 mph 79 % 0.00 in
19:46 78.8 °F 71.8 °F 29.94 in SW 5.0 mph 9.0 mph 79 % 0.00 in
19:51 78.6 °F 72.0 °F 29.94 in SSE 2.0 mph 9.0 mph 80 % 0.00 in
19:56 78.6 °F 72.0 °F 29.94 in SSE 8.0 mph 9.0 mph 80 % 0.00 in
20:01 78.4 °F 72.1 °F 29.94 in South 5.0 mph 9.0 mph 81 % 0.00 in
20:06 78.3 °F 72.0 °F 29.94 in WSW 3.0 mph 9.0 mph 81 % 0.00 in
20:11 78.3 °F 72.3 °F 29.95 in SW 4.0 mph 9.0 mph 82 % 0.00 in
20:16 78.1 °F 72.5 °F 29.95 in South 4.0 mph 9.0 mph 83 % 0.00 in
20:21 77.7 °F 72.1 °F 29.95 in SSE 7.0 mph 11.0 mph 83 % 0.00 in
20:26 77.7 °F 72.5 °F 29.95 in SW 4.0 mph 11.0 mph 84 % 0.00 in
20:31 77.5 °F 72.3 °F 29.95 in SSE 6.0 mph 11.0 mph 84 % 0.00 in
20:36 77.4 °F 72.5 °F 29.95 in SSW 3.0 mph 10.0 mph 85 % 0.00 in
20:41 77.2 °F 72.3 °F 29.95 in SSW 4.0 mph 10.0 mph 85 % 0.00 in
20:46 77.0 °F 72.5 °F 29.96 in SSE 4.0 mph 9.0 mph 86 % 0.00 in
20:51 76.8 °F 72.3 °F 29.96 in SSE 2.0 mph 9.0 mph 86 % 0.00 in
20:56 76.6 °F 72.5 °F 29.95 in SSW 6.0 mph 10.0 mph 87 % 0.00 in
21:01 76.6 °F 72.9 °F 29.95 in SE 3.0 mph 11.0 mph 88 % 0.00 in
21:06 76.5 °F 73.0 °F 29.96 in South 5.0 mph 11.0 mph 89 % 0.00 in
21:12 76.5 °F 73.0 °F 29.96 in South 5.0 mph 11.0 mph 89 % 0.00 in
21:18 76.3 °F 72.9 °F 29.96 in SSW 2.0 mph 11.0 mph 89 % 0.00 in
21:21 76.1 °F 72.7 °F 29.96 in South 1.0 mph 11.0 mph 89 % 0.00 in
21:23 75.9 °F 72.5 °F 29.96 in SSW 2.0 mph 11.0 mph 89 % 0.00 in
21:25 75.9 °F 72.9 °F 29.96 in SSE 6.0 mph 11.0 mph 90 % 0.00 in
21:30 75.7 °F 72.7 °F 29.96 in SSE 4.0 mph 7.0 mph 90 % 0.00 in
21:31 75.7 °F 72.7 °F 29.96 in SW 4.0 mph 7.0 mph 90 % 0.00 in
21:36 75.6 °F 72.7 °F 29.96 in SSE 6.0 mph 6.0 mph 91 % 0.00 in
21:41 75.6 °F 72.7 °F 29.96 in SW 3.0 mph 7.0 mph 91 % 0.00 in
21:46 75.6 °F 73.0 °F 29.96 in SSE 1.0 mph 7.0 mph 92 % 0.00 in
21:51 75.4 °F 72.9 °F 29.96 in SSW 6.0 mph 7.0 mph 92 % 0.00 in
21:56 75.4 °F 72.9 °F 29.96 in South 5.0 mph 6.0 mph 92 % 0.00 in
22:01 75.4 °F 73.2 °F 29.96 in SE 4.0 mph 8.0 mph 93 % 0.00 in
22:06 75.4 °F 73.2 °F 29.96 in South 3.0 mph 8.0 mph 93 % 0.00 in
22:11 75.2 °F 73.0 °F 29.96 in South 4.0 mph 8.0 mph 93 % 0.00 in
22:16 75.0 °F 72.9 °F 29.96 in SW 5.0 mph 8.0 mph 93 % 0.00 in
22:21 75.0 °F 72.9 °F 29.96 in SSE 2.0 mph 8.0 mph 93 % 0.00 in
22:26 75.0 °F 73.2 °F 29.96 in SSW 3.0 mph 8.0 mph 94 % 0.00 in
22:31 75.0 °F 73.2 °F 29.96 in SSW 6.0 mph 8.0 mph 94 % 0.00 in
22:36 75.0 °F 73.2 °F 29.95 in SSW 2.0 mph 8.0 mph 94 % 0.00 in
22:41 75.0 °F 73.2 °F 29.95 in SSW 4.0 mph 8.0 mph 94 % 0.00 in
22:46 75.0 °F 73.2 °F 29.95 in SSW 3.0 mph 9.0 mph 94 % 0.00 in
22:51 75.0 °F 73.2 °F 29.95 in SW 3.0 mph 9.0 mph 94 % 0.00 in
22:56 75.2 °F 73.6 °F 29.96 in SW 6.0 mph 9.0 mph 95 % 0.00 in
23:01 75.4 °F 73.8 °F 29.96 in SW 5.0 mph 9.0 mph 95 % 0.00 in
23:06 75.6 °F 73.8 °F 29.96 in SSW 8.0 mph 9.0 mph 94 % 0.00 in
23:11 75.7 °F 73.9 °F 29.96 in SW 5.0 mph 12.0 mph 94 % 0.00 in
23:16 75.7 °F 73.9 °F 29.96 in South 5.0 mph 12.0 mph 94 % 0.00 in
23:21 75.9 °F 74.1 °F 29.96 in SSE 7.0 mph 12.0 mph 94 % 0.00 in
23:26 76.1 °F 74.3 °F 29.96 in ESE 7.0 mph 11.0 mph 94 % 0.00 in
23:31 76.3 °F 74.1 °F 29.96 in SSE 4.0 mph 12.0 mph 93 % 0.00 in
23:36 76.3 °F 74.1 °F 29.96 in SW 3.0 mph 12.0 mph 93 % 0.00 in
23:41 76.3 °F 74.1 °F 29.96 in South 6.0 mph 12.0 mph 93 % 0.00 in
23:46 76.3 °F 74.1 °F 29.96 in SSW 3.0 mph 13.0 mph 93 % 0.00 in
23:51 76.3 °F 74.1 °F 29.96 in South 7.0 mph 13.0 mph 93 % 0.00 in
23:56 76.5 °F 74.3 °F 29.96 in SW 5.0 mph 13.0 mph 93 % 0.00 in
Spring, Texas: Villages of Bridgestone
Compliments of Weather Underground - 3 mb

Script developed by  Jim McMurry - jmcmurry@mwt.net Adapted for the template by  Wim van der Kuil - Leuven-Template.eu

You find our weather info also at:

UK Metoffice

WeatherCloud

Weather Underground

Mid-South Weather Network

AWEKAS

Citizen Weather Observer Program (CWOP)

HAMweather, WeatherForYou, PWS Weather

Equipment we use:

Weather-station
Davis Vantage Vue

Weather-program
Meteohub

Weather-server
Debian 7.9 x86 (Guest)

Provider
DreamHost

Davis Vantage Vue

Meteohub

Debian 7.9 x86 (Guest)

DreamHost